This is the latest recevied weather packets stored in our database for station/object WP4PW. If no packets are shown the sender has not sent any weather packets the latest 10 day(s).
| Time | Temp. | Humidity | Pressure | Rain* | Wind** | Luminosity | Snow |
|---|---|---|---|---|---|---|---|
| 1778251274 | 28.89° C | 76% | 1020.6 hPa | 0 mm | - | 735 W/m² | - |
| 1778250972 | 30° C | 75% | 1020.6 hPa | 0 mm | - | 725 W/m² | - |
| 1778250668 | 29.44° C | 75% | 1020.6 hPa | 0 mm | - | 716 W/m² | - |
| 1778250365 | 29.44° C | 74% | 1020.7 hPa | 0 mm | - | 707 W/m² | - |
| 1778250062 | 29.44° C | 75% | 1020.6 hPa | 0 mm | - | 695 W/m² | - |
| 1778249758 | 28.89° C | 75% | 1020.7 hPa | 0 mm | - | 685 W/m² | - |
| 1778249456 | 29.44° C | 75% | 1020.6 hPa | 0 mm | - | 668 W/m² | - |
| 1778249153 | 28.89° C | 74% | 1020.6 hPa | 0 mm | - | 657 W/m² | - |
| 1778248849 | 28.89° C | 74% | 1020.7 hPa | 0 mm | - | 643 W/m² | - |
| 1778248545 | 29.44° C | 75% | 1020.8 hPa | 0 mm | - | 628 W/m² | - |
| 1778248241 | 29.44° C | 74% | 1020.6 hPa | 0 mm | - | 617 W/m² | - |
| 1778247938 | 29.44° C | 74% | 1020.7 hPa | 0 mm | - | 604 W/m² | - |
| 1778247635 | 29.44° C | 74% | 1020.6 hPa | 0 mm | - | 589 W/m² | - |
| 1778247332 | 28.89° C | 75% | 1020.6 hPa | 0 mm | - | 578 W/m² | - |
| 1778247029 | 28.89° C | 75% | 1020.7 hPa | 0 mm | - | 568 W/m² | - |
| 1778246727 | 28.89° C | 76% | 1020.7 hPa | 0 mm | - | 554 W/m² | - |
| 1778246424 | 28.89° C | 77% | 1020.7 hPa | 0 mm | - | 553 W/m² | - |
| 1778246119 | 28.89° C | 76% | 1020.6 hPa | 0 mm | - | 525 W/m² | - |
| 1778245816 | 28.89° C | 77% | 1020.4 hPa | 0 mm | - | 506 W/m² | - |
| 1778245513 | 28.33° C | 78% | 1020.6 hPa | 0 mm | - | 507 W/m² | - |
| 1778245209 | 28.33° C | 77% | 1020.6 hPa | 0 mm | - | 474 W/m² | - |
| 1778244905 | 28.33° C | 78% | 1020.5 hPa | 0 mm | - | 463 W/m² | - |
| 1778244603 | 28.89° C | 77% | 1020.3 hPa | 0 mm | - | 440 W/m² | - |
| 1778244301 | 28.33° C | 77% | 1020.3 hPa | 0 mm | - | 425 W/m² | - |
| 1778243997 | 28.33° C | 76% | 1020.4 hPa | 0 mm | - | 410 W/m² | - |
* Rain latest hour (hover to see other rain measurements)
** Current wind speed in m/s (hover to see current wind gust speed)